Time,TemperatureF,DewpointF,PressureIn,WindDirection,WindDirectionDegrees,WindSpeedMPH,WindSpeedGustMPH,Humidity,HourlyPrecipIn,Conditions,Clouds,dailyrainin,SoftwareType,DateUTC
2013-04-02 01:30:00,23.4,13.3,29.14,West,270,0.4,0.4,65,0.00,,,0.00,WUHU216HW,2013-04-02 05:30:00,
2013-04-02 09:00:00,25.4,17.6,29.21,WNW,293,3.6,3.6,72,0.00,,,0.00,WUHU216HW,2013-04-02 13:00:00,
2013-04-02 09:05:00,25.4,17.6,29.21,WNW,293,3.6,3.6,72,0.00,,,0.00,WUHU216HW,2013-04-02 13:05:00,
2013-04-02 09:30:00,27.7,16.7,29.21,SSW,203,3.1,3.1,63,0.00,,,0.00,WUHU216HW,2013-04-02 13:30:00,
2013-04-02 09:35:00,27.7,16.7,29.21,SSW,203,3.1,3.1,63,0.00,,,0.00,WUHU216HW,2013-04-02 13:35:00,
2013-04-02 10:00:00,29.5,15.3,29.21,NNW,338,1.8,1.8,55,0.00,,,0.00,WUHU216HW,2013-04-02 14:00:00,
2013-04-02 10:05:00,29.5,15.3,29.21,NNW,338,1.8,1.8,55,0.00,,,0.00,WUHU216HW,2013-04-02 14:05:00,
2013-04-02 10:30:00,31.3,15.3,29.21,NW,315,2.9,2.9,51,0.00,,,0.00,WUHU216HW,2013-04-02 14:30:00,
2013-04-02 10:35:00,31.3,15.3,29.21,NW,315,2.9,2.9,51,0.00,,,0.00,WUHU216HW,2013-04-02 14:35:00,
2013-04-02 11:00:00,33.1,14.4,29.21,NW,315,5.4,5.4,46,0.00,,,0.00,WUHU216HW,2013-04-02 15:00:00,
2013-04-02 11:05:00,33.1,14.4,29.21,NW,315,5.4,5.4,46,0.00,,,0.00,WUHU216HW,2013-04-02 15:05:00,
2013-04-02 11:30:00,34.0,14.8,29.21,WNW,293,3.8,3.8,45,0.00,,,0.00,WUHU216HW,2013-04-02 15:30:00,
2013-04-02 11:35:00,34.0,14.8,29.21,WNW,293,3.8,3.8,45,0.00,,,0.00,WUHU216HW,2013-04-02 15:35:00,
2013-04-02 12:00:00,35.1,15.3,29.21,NNW,338,4.9,4.9,44,0.00,,,0.00,WUHU216HW,2013-04-02 16:00:00,
2013-04-02 12:05:00,35.1,15.3,29.21,NNW,338,4.9,4.9,44,0.00,,,0.00,WUHU216HW,2013-04-02 16:05:00,
2013-04-02 12:30:00,36.4,15.4,29.21,WNW,293,7.6,7.6,42,0.00,,,0.00,WUHU216HW,2013-04-02 16:30:00,
2013-04-02 12:35:00,36.4,15.4,29.21,WNW,293,7.6,7.6,42,0.00,,,0.00,WUHU216HW,2013-04-02 16:35:00,
2013-04-02 13:00:00,36.4,15.9,29.21,WNW,293,3.8,3.8,43,0.00,,,0.00,WUHU216HW,2013-04-02 17:00:00,
2013-04-02 13:05:00,36.4,15.9,29.21,WNW,293,3.8,3.8,43,0.00,,,0.00,WUHU216HW,2013-04-02 17:05:00,
2013-04-02 13:30:00,37.8,14.3,29.20,NW,315,4.7,4.7,38,0.00,,,0.00,WUHU216HW,2013-04-02 17:30:00,
2013-04-02 13:35:00,37.8,14.3,29.20,NW,315,4.7,4.7,38,0.00,,,0.00,WUHU216HW,2013-04-02 17:35:00,
2013-04-02 14:00:00,37.6,14.1,29.20,WSW,248,7.6,7.6,38,0.00,,,0.00,WUHU216HW,2013-04-02 18:00:00,
2013-04-02 14:05:00,37.6,14.1,29.20,WSW,248,7.6,7.6,38,0.00,,,0.00,WUHU216HW,2013-04-02 18:05:00,
2013-04-02 14:30:00,38.0,14.5,29.19,NW,315,4.5,4.5,38,0.00,,,0.00,WUHU216HW,2013-04-02 18:30:00,
2013-04-02 14:35:00,38.0,14.5,29.19,NW,315,4.5,4.5,38,0.00,,,0.00,WUHU216HW,2013-04-02 18:35:00,
2013-04-02 15:30:00,38.3,13.5,29.18,West,270,3.4,3.4,36,0.00,,,0.00,WUHU216HW,2013-04-02 19:30:00,
2013-04-02 15:35:00,38.3,13.5,29.18,West,270,3.4,3.4,36,0.00,,,0.00,WUHU216HW,2013-04-02 19:35:00,
2013-04-02 16:00:00,40.3,15.9,29.17,North,0,3.4,3.4,37,0.00,,,0.00,WUHU216HW,2013-04-02 20:00:00,
2013-04-02 16:05:00,40.3,15.9,29.17,North,0,3.4,3.4,37,0.00,,,0.00,WUHU216HW,2013-04-02 20:05:00,
2013-04-02 16:30:00,41.2,15.5,29.18,West,270,6.9,6.9,35,0.00,,,0.00,WUHU216HW,2013-04-02 20:30:00,
2013-04-02 16:35:00,41.2,15.5,29.18,West,270,6.9,6.9,35,0.00,,,0.00,WUHU216HW,2013-04-02 20:35:00,
2013-04-02 17:00:00,41.4,14.9,29.18,WNW,293,4.5,4.5,34,0.00,,,0.00,WUHU216HW,2013-04-02 21:00:00,